Location: *
(35.8942°N, 23.3025°E)
Time: 21:46:27
(UTC+00:00)

Cosmos 1603 - Pass Details

Date: 21 September 2021
Orbit: 829 x 861 km, 71.0° (Epoch: 22 October)

Event Time Altitude Azimuth Distance (km) Brightness Sun altitude
Rises 03:41:41 0° 189° (S) 3,355 6.7 -7.4°
Reaches altitude 10° 03:44:07 10° 185° (S) 2,427 6.0 -6.9°
Maximum altitude 03:49:34 59° 107° (ESE) 961 4.4 -5.8°
Drops below altitude 10° 03:55:05 10° 30° (NNE) 2,456 6.6 -4.7°
Sets 03:57:34 0° 26° (NNE) 3,399 7.3 -4.2°
